TimeCDT,TemperatureF,Dew PointF,Humidity,Sea Level PressureIn,VisibilityMPH,Wind Direction,Wind SpeedMPH,Gust SpeedMPH,PrecipitationIn,Events,Conditions,WindDirDegrees,DateUTC
12:51 AM,44.1,37.9,79,30.00,7.0,West,6.9,-,N/A,,Clear,270,2012-10-19 05:51:00
1:51 AM,46.0,37.0,71,30.00,10.0,West,6.9,-,N/A,,Clear,270,2012-10-19 06:51:00
2:51 AM,41.0,37.0,86,29.99,10.0,SW,4.6,-,N/A,,Clear,220,2012-10-19 07:51:00
3:51 AM,43.0,37.9,82,29.99,10.0,Calm,Calm,-,N/A,,Clear,0,2012-10-19 08:51:00
4:51 AM,42.8,35.6,76,30.00,10.0,Calm,Calm,-,N/A,,Clear,0,2012-10-19 09:51:00
5:51 AM,41.0,36.0,82,30.01,10.0,WSW,5.8,-,N/A,,Clear,240,2012-10-19 10:51:00
6:51 AM,41.0,36.0,82,30.02,10.0,Calm,Calm,-,N/A,,Clear,0,2012-10-19 11:51:00
7:51 AM,39.9,35.1,83,30.03,10.0,WSW,4.6,-,N/A,,Clear,240,2012-10-19 12:51:00
8:51 AM,50.0,39.0,66,30.04,10.0,Calm,Calm,-,N/A,,Clear,0,2012-10-19 13:51:00
9:51 AM,59.0,41.0,51,30.06,10.0,NW,3.5,-,N/A,,Clear,310,2012-10-19 14:51:00
10:51 AM,70.0,41.0,35,30.05,10.0,Calm,Calm,-,N/A,,Clear,0,2012-10-19 15:51:00
11:51 AM,75.0,37.0,25,30.04,10.0,Calm,Calm,-,N/A,,Clear,0,2012-10-19 16:51:00
12:51 PM,78.1,34.0,20,30.01,10.0,NNW,13.8,-,N/A,,Clear,330,2012-10-19 17:51:00
1:51 PM,78.8,32.0,18,29.99,10.0,Calm,Calm,-,N/A,,Clear,0,2012-10-19 18:51:00
2:51 PM,80.6,32.0,17,29.96,10.0,NE,8.1,-,N/A,,Clear,50,2012-10-19 19:51:00
3:51 PM,81.0,34.0,18,29.94,10.0,North,5.8,-,N/A,,Clear,360,2012-10-19 20:51:00
4:51 PM,80.1,33.1,18,29.92,10.0,NE,4.6,-,N/A,,Clear,50,2012-10-19 21:51:00
5:51 PM,78.1,34.0,20,29.91,10.0,Calm,Calm,-,N/A,,Clear,0,2012-10-19 22:51:00
6:51 PM,71.1,37.9,30,29.90,10.0,ESE,4.6,-,N/A,,Clear,110,2012-10-19 23:51:00
7:51 PM,60.1,41.0,49,29.91,10.0,SE,4.6,-,N/A,,Clear,130,2012-10-20 00:51:00
8:51 PM,64.9,39.0,39,29.91,10.0,SSE,9.2,-,N/A,,Clear,150,2012-10-20 01:51:00
9:51 PM,64.4,39.2,40,29.92,10.0,SSE,5.8,-,N/A,,Clear,160,2012-10-20 02:51:00
10:51 PM,55.9,43.0,62,29.91,10.0,South,4.6,-,N/A,,Clear,170,2012-10-20 03:51:00
11:51 PM,52.0,43.0,71,29.91,10.0,SSW,6.9,-,N/A,,Clear,210,2012-10-20 04:51:00